Погода в Илагане

Филиппины     17°08′13″N   121°52′18″E
темп.,
°C
ветер,
м/с
пор.,
м/с
влажн.,
%
обл.,
%
осадки,
мм/ч
давл.,
гПа
погр.,
м
18 апреля, вс
вс1823:00+24ссз5878100 0.0 1013440
02:00+23с4782100 0.0 1012286
05:00+23с2583100 0.0 1011138
08:00+26с456994 0.0 1012687
11:00+31ссз3548100 0.0 10102074
14:00+30св465371 0.2 1007569
17:00+29с5561100 0.4 10081452
20:00+24ссз61078100 0.6 1011401
19 апреля, пн
пн1923:00+22ссз7118385 0.0 1011443
02:00+22ссз7138322 0.0 1010532
05:00+21ссз7128494 0.0 1010548
08:00+24ссз9107123 0.0 1010844
11:00+27ссз996368 0.0 10101180
14:00+25ссз101173100 0.0 1008791
17:00+24ссз9127781 0.0 1008778
20:00+23ссз8128198 0.0 1009647
20 апреля, вт
вт2023:00+23ссз81286100 0.0 1009578
02:00+23ссз81187100 0.0 1007621
05:00+23ссз81284100 0.0 1007616
08:00+25ссз91177100 0.0 1008726
11:00+25ссз91278100 0.0 1008817
14:00+24ссз81281100 0.0 1007855
17:00+24ссз81382100 0.0 1006841
20:00+24ссз81382100 0.0 1008940
21 апреля, ср
ср2123:00+24ссз81482100 0.1 1008858
02:00+24ссз81383100 0.2 1006918
05:00+24ссз81487100 0.2 1006795
08:00+25ссз81384100 0.4 10071154
11:00+27ссз91474100 0.3 10071234
14:00+28ссз101471100 1.1 10041264
17:00+25ссз81483100 0.3 1004951
20:00+25ссз71380100 0.3 1006875
22 апреля, чт
чт2223:00+25ссз61281100 0.1 1006827
02:00+23ссз2688100 0.5 1004250
05:00+23ссз3691100 0.6 1005258
08:00+26с5875100 0.6 1006641
11:00+30с91159100 0.1 10051366
14:00+30с91160100 0.1 10031260
17:00+27с71272100 0.0 1003770
20:00+25с61283100 0.1 1006601